GW1663 Weather Reports


time (UTC)temp
C
wind
direction
speed
KPH
gust
KPH
rain 1hr
cm
rain 24hr
cm
rain mn
cm
humidity
%
barometer
mb
20260507192948 32 312 6.4 20.9 0.00 0.00 0.00 12 1015.3
20260507192444 32 209 6.4 22.5 0.00 0.00 0.00 12 1015.4
20260507191942 32 247 11.3 27.4 0.00 0.00 0.00 12 1015.5
20260507191437 32 229 6.4 17.7 0.00 0.00 0.00 12 1015.5
20260507190934 32 251 3.2 12.9 0.00 0.00 0.00 12 1015.7
20260507190432 32 184 3.2 17.7 0.00 0.00 0.00 12 1015.7
20260507185930 32 134 8.0 16.1 0.00 0.00 0.00 12 1015.8
20260507183753 31 292 4.8 20.9 0.00 0.00 0.00 13 1016.4
20260507183250 31 292 4.8 20.9 0.00 0.00 0.00 13 1016.4
20260507182747 32 241 4.8 14.5 0.00 0.00 0.00 13 1016.2
20260507182242 32 176 6.4 11.3 0.00 0.00 0.00 12 1016.5
20260507181739 31 137 12.9 14.5 0.00 0.00 0.00 13 1016.3
20260507181236 31 284 3.2 11.3 0.00 0.00 0.00 13 1016.5
20260507180732 31 176 3.2 12.9 0.00 0.00 0.00 13 1016.5
20260507180229 32 148 8.0 11.3 0.00 0.00 0.00 12 1016.5
20260507175725 31 201 4.8 12.9 0.00 0.00 0.00 12 1016.7
20260507175222 30 114 6.4 17.7 0.00 0.00 0.00 12 1016.7
20260507174720 31 149 4.8 8.0 0.00 0.00 0.00 12 1016.7
20260507174217 30 219 4.8 17.7 0.00 0.00 0.00 12 1016.8
20260507173715 30 234 3.2 4.8 0.00 0.00 0.00 12 1016.7
20260507173211 30 231 8.0 19.3 0.00 0.00 0.00 12 1016.9
20260507172708 30 233 4.8 9.7 0.00 0.00 0.00 12 1016.9
20260507172205 30 279 1.6 11.3 0.00 0.00 0.00 12 1016.9
20260507171705 30 198 4.8 14.5 0.00 0.00 0.00 12 1016.7
20260507171203 31 266 6.4 12.9 0.00 0.00 0.00 13 1016.9
20260507170659 30 262 6.4 12.9 0.00 0.00 0.00 13 1016.9
20260507170156 30 234 4.8 17.7 0.00 0.00 0.00 13 1016.9
20260507165652 31 267 3.2 8.0 0.00 0.00 0.00 12 1017.0
20260507165148 31 103 6.4 11.3 0.00 0.00 0.00 12 1017.1
20260507164644 30 199 1.6 12.9 0.00 0.00 0.00 12 1017.0
20260507164142 30 227 3.2 16.1 0.00 0.00 0.00 13 1016.9
20260507163638 30 153 8.0 20.9 0.00 0.00 0.00 12 1017.1
20260507163137 30 176 3.2 9.7 0.00 0.00 0.00 13 1017.2
20260507162632 30 148 6.4 9.7 0.00 0.00 0.00 13 1017.2
20260507162129 30 241 3.2 6.4 0.00 0.00 0.00 13 1017.3
20260507161625 30 167 1.6 17.7 0.00 0.00 0.00 13 1017.3
20260507161121 30 300 1.6 9.7 0.00 0.00 0.00 13 1017.3
20260507160618 29 85 1.6 20.9 0.00 0.00 0.00 13 1017.6
20260507160114 29 291 1.6 19.3 0.00 0.00 0.00 13 1017.5
20260507155609 28 36 3.2 11.3 0.00 0.00 0.00 13 1017.6
20260507155107 29 87 8.0 14.5 0.00 0.00 0.00 13 1017.7
20260507154604 28 65 8.0 16.1 0.00 0.00 0.00 14 1017.5
20260507154100 28 66 8.0 24.1 0.00 0.00 0.00 14 1017.7
20260507153557 28 342 1.6 6.4 0.00 0.00 0.00 16 1017.6
20260507153054 28 99 8.0 14.5 0.00 0.00 0.00 17 1017.7
20260507152550 27 12 3.2 4.8 0.00 0.00 0.00 20 1017.5
20260507152046 27 352 4.8 4.8 0.00 0.00 0.00 20 1017.7
20260507151542 26 55 0.0 6.4 0.00 0.00 0.00 21 1017.7
20260507151039 25 334 3.2 6.4 0.00 0.00 0.00 24 1017.7
20260507150537 24 351 0.0 4.8 0.00 0.00 0.00 26 1017.8
20260507150033 23 318 1.6 4.8 0.00 0.00 0.00 27 1017.8
20260507145528 23 296 3.2 6.4 0.00 0.00 0.00 29 1017.8
20260507145026 23 23 0.0 4.8 0.00 0.00 0.00 28 1017.7
20260507144522 22 324 1.6 3.2 0.00 0.00 0.00 29 1017.8
20260507144020 22 74 0.0 4.8 0.00 0.00 0.00 29 1017.8
20260507143517 21 129 0.0 4.8 0.00 0.00 0.00 30 1017.8
20260507143015 21 269 0.0 6.4 0.00 0.00 0.00 30 1017.7
20260507142509 21 216 1.6 4.8 0.00 0.00 0.00 30 1017.8
20260507142007 21 351 1.6 4.8 0.00 0.00 0.00 31 1017.7
20260507141503 21 25 1.6 4.8 0.00 0.00 0.00 31 1017.6
20260507140959 20 331 4.8 4.8 0.00 0.00 0.00 31 1017.7
20260507140456 20 32 0.0 3.2 0.00 0.00 0.00 32 1017.8
20260507135954 20 344 0.0 6.4 0.00 0.00 0.00 33 1017.5
20260507135450 18 7 3.2 4.8 0.00 0.00 0.00 34 1017.9
20260507134948 18 334 3.2 6.4 0.00 0.00 0.00 35 1017.7
20260507134444 18 355 3.2 6.4 0.00 0.00 0.00 34 1017.2
20260507133940 17 310 4.8 8.0 0.00 0.00 0.00 34 1017.5
20260507133436 17 326 4.8 8.0 0.00 0.00 0.00 34 1017.1
20260507132935 17 324 6.4 8.0 0.00 0.00 0.00 34 1017.1
20260507132431 17 339 4.8 8.0 0.00 0.00 0.00 35 1017.3
20260507131927 17 327 4.8 11.3 0.00 0.00 0.00 35 1017.5
20260507131425 16 327 4.8 6.4 0.00 0.00 0.00 35 1017.0
20260507130922 17 339 4.8 6.4 0.00 0.00 0.00 35 1017.0
20260507130419 16 333 4.8 8.0 0.00 0.00 0.00 35 1017.3
20260507125917 16 294 1.6 6.4 0.00 0.00 0.00 36 1017.0
20260507125415 16 304 3.2 6.4 0.00 0.00 0.00 37 1016.9
20260507124912 16 19 0.0 4.8 0.00 0.00 0.00 37 1016.9
20260507124408 16 335 1.6 3.2 0.00 0.00 0.00 38 1016.7
20260507123907 16 279 4.8 6.4 0.00 0.00 0.00 39 1017.0
20260507123403 16 313 1.6 4.8 0.00 0.00 0.00 38 1016.9
20260507122900 16 128 0.0 3.2 0.00 0.00 0.00 38 1016.7
20260507122355 16 315 0.0 4.8 0.00 0.00 0.00 37 1016.9
20260507121852 17 347 1.6 3.2 0.00 0.00 0.00 37 1016.9
20260507121347 16 330 3.2 4.8 0.00 0.00 0.00 37 1017.0
20260507120844 16 25 1.6 4.8 0.00 0.00 0.00 37 1016.8
20260507120340 16 142 0.0 3.2 0.00 0.00 0.00 37 1016.9
20260507115837 16 347 0.0 3.2 0.00 0.00 0.00 37 1017.0
20260507115332 16 349 3.2 6.4 0.00 0.00 0.00 36 1017.1
20260507114828 16 340 4.8 6.4 0.00 0.00 0.00 37 1017.1
20260507114325 16 333 3.2 4.8 0.00 0.00 0.00 37 1017.1
20260507113823 16 337 1.6 3.2 0.00 0.00 0.00 38 1017.0
20260507113320 16 314 3.2 3.2 0.00 0.00 0.00 37 1017.5
20260507112817 16 351 1.6 3.2 0.00 0.00 0.00 36 1017.2
20260507112314 16 309 0.0 3.2 0.00 0.00 0.00 36 1017.5
20260507111812 16 333 0.0 1.6 0.00 0.00 0.00 36 1017.5
20260507111308 16 85 1.6 3.2 0.00 0.00 0.00 36 1017.5
20260507110804 16 277 0.0 3.2 0.00 0.00 0.00 35 1017.5
20260507110301 17 306 0.0 3.2 0.00 0.00 0.00 35 1017.6
20260507105758 17 328 3.2 3.2 0.00 0.00 0.00 35 1017.3
20260507105254 17 255 0.0 3.2 0.00 0.00 0.00 36 1017.5
20260507104752 17 284 0.0 4.8 0.00 0.00 0.00 36 1017.6
20260507104248 17 340 3.2 4.8 0.00 0.00 0.00 35 1017.6
20260507103744 17 135 0.0 4.8 0.00 0.00 0.00 35 1017.7
20260507103240 17 342 1.6 4.8 0.00 0.00 0.00 34 1017.9
20260507102737 17 196 1.6 3.2 0.00 0.00 0.00 34 1017.6
20260507102234 18 56 1.6 4.8 0.00 0.00 0.00 33 1017.8
20260507101730 18 219 1.6 4.8 0.00 0.00 0.00 32 1017.7
20260507101225 18 165 0.0 3.2 0.00 0.00 0.00 32 1017.6
20260507100722 18 322 1.6 3.2 0.00 0.00 0.00 31 1017.7
20260507100221 18 306 0.0 3.2 0.00 0.00 0.00 31 1017.7
20260507095718 18 338 3.2 4.8 0.00 0.00 0.00 30 1017.7
20260507095214 18 11 3.2 4.8 0.00 0.00 0.00 31 1017.8
20260507094711 18 4 3.2 4.8 0.00 0.00 0.00 31 1017.7
20260507094209 18 21 1.6 4.8 0.00 0.00 0.00 32 1017.7
20260507093705 18 10 1.6 4.8 0.00 0.00 0.00 31 1017.5
20260507093204 18 343 3.2 4.8 0.00 0.00 0.00 32 1017.7
20260507092701 18 17 1.6 6.4 0.00 0.00 0.00 31 1017.7
20260507092157 18 60 1.6 4.8 0.00 0.00 0.00 32 1017.5
20260507091653 18 8 1.6 3.2 0.00 0.00 0.00 33 1017.7
20260507091150 18 358 0.0 4.8 0.00 0.00 0.00 33 1017.6
20260507090645 18 79 3.2 3.2 0.00 0.00 0.00 33 1017.7
20260507090143 18 85 1.6 4.8 0.00 0.00 0.00 32 1017.7
20260507085640 18 350 0.0 3.2 0.00 0.00 0.00 32 1017.6
20260507085136 18 159 0.0 3.2 0.00 0.00 0.00 34 1017.7
20260507084633 18 350 3.2 4.8 0.00 0.00 0.00 32 1017.8
20260507084130 18 75 0.0 3.2 0.00 0.00 0.00 33 1017.5
20260507083627 18 8 0.0 4.8 0.00 0.00 0.00 33 1017.7
20260507083124 18 358 1.6 4.8 0.00 0.00 0.00 34 1018.0
20260507082619 18 352 1.6 3.2 0.00 0.00 0.00 33 1017.8
20260507082116 18 62 0.0 1.6 0.00 0.00 0.00 37 1017.8
20260507081613 18 307 0.0 3.2 0.00 0.00 0.00 36 1018.1
20260507081109 18 41 0.0 1.6 0.00 0.00 0.00 34 1017.9
20260507080606 18 333 0.0 1.6 0.00 0.00 0.00 32 1018.0
20260507075557 18 124 0.0 1.6 0.00 0.00 0.00 32 1018.0
20260507075054 19 309 0.0 3.2 0.00 0.00 0.00 31 1018.1
20260507074551 19 113 0.0 3.2 0.00 0.00 0.00 31 1018.0
20260507074049 19 119 0.0 3.2 0.00 0.00 0.00 31 1018.0
20260507073544 19 15 0.0 3.2 0.00 0.00 0.00 31 1018.0
20260507073041 20 340 0.0 1.6 0.00 0.00 0.00 31 1018.1
20260507072539 20 4 1.6 3.2 0.00 0.00 0.00 31 1018.0
20260507072036 20 16 0.0 3.2 0.00 0.00 0.00 32 1018.1
20260507071533 20 117 0.0 1.6 0.00 0.00 0.00 32 1018.0
20260507071030 20 133 1.6 3.2 0.00 0.00 0.00 32 1018.0
20260507070527 20 89 0.0 3.2 0.00 0.00 0.00 32 1017.8
20260507070024 20 8 1.6 3.2 0.00 0.00 0.00 32 1017.8
20260507065520 20 349 1.6 3.2 0.00 0.00 0.00 32 1018.0
20260507065018 20 11 0.0 3.2 0.00 0.00 0.00 33 1017.9
20260507064515 20 329 0.0 3.2 0.00 0.00 0.00 33 1017.8
20260507064014 20 44 0.0 0.0 0.00 0.00 0.00 34 1017.6
20260507063510 20 30 1.6 3.2 0.00 0.00 0.00 33 1017.9
20260507063008 20 317 0.0 3.2 0.00 0.00 0.00 32 1017.9
20260507062504 20 351 0.0 1.6 0.00 0.00 0.00 32 1017.8
20260507062002 20 355 0.0 1.6 0.00 0.00 0.00 32 1017.6
20260507061459 21 276 0.0 1.6 0.00 0.00 0.00 31 1017.8
20260507060958 21 333 0.0 3.2 0.00 0.00 0.00 31 1017.8
20260507060454 22 7 0.0 1.6 0.00 0.00 0.00 28 1017.8
20260507055951 22 282 0.0 3.2 0.00 0.00 0.00 26 1017.9
20260507055446 22 219 1.6 3.2 0.00 0.00 0.00 26 1017.8
20260507054943 22 225 0.0 4.8 0.00 0.00 0.00 26 1017.8
20260507054439 23 235 0.0 3.2 0.00 0.00 0.00 25 1017.8
20260507053936 23 241 3.2 6.4 0.00 0.00 0.00 25 1018.0
20260507053434 23 228 4.8 11.3 0.00 0.00 0.00 24 1017.7
20260507052932 23 185 3.2 11.3 0.00 0.00 0.00 24 1018.0
20260507052429 23 242 0.0 6.4 0.00 0.00 0.00 25 1018.1
20260507051926 23 232 1.6 6.4 0.00 0.00 0.00 24 1018.0
20260507051424 23 221 4.8 9.7 0.00 0.00 0.00 24 1017.9
20260507050921 23 215 4.8 9.7 0.00 0.00 0.00 24 1017.9
20260507050417 24 218 6.4 9.7 0.00 0.00 0.00 23 1017.8
20260507045914 24 221 3.2 8.0 0.00 0.00 0.00 23 1017.6
20260507045411 24 219 4.8 9.7 0.00 0.00 0.00 23 1017.8
20260507044908 24 205 4.8 11.3 0.00 0.00 0.00 23 1017.7
20260507044405 24 226 4.8 8.0 0.00 0.00 0.00 23 1017.6
20260507043901 24 225 3.2 4.8 0.00 0.00 0.00 23 1017.5
20260507043357 24 233 1.6 6.4 0.00 0.00 0.00 23 1017.6
20260507042853 25 219 6.4 8.0 0.00 0.00 0.00 23 1017.6
20260507042350 24 196 1.6 6.4 0.00 0.00 0.00 23 1017.3
20260507041846 25 223 3.2 8.0 0.00 0.00 0.00 23 1017.6
20260507041343 25 236 0.0 8.0 0.00 0.00 0.00 23 1017.5
20260507040840 24 205 0.0 8.0 0.00 0.00 0.00 23 1017.3
20260507040336 24 188 1.6 4.8 0.00 0.00 0.00 23 1017.1
20260507035832 25 134 0.0 4.8 0.00 0.00 0.00 23 1016.9
20260507035328 25 256 0.0 4.8 0.00 0.00 0.00 23 1016.8
20260507034826 25 210 6.4 6.4 0.00 0.00 0.00 22 1017.0
20260507034322 25 223 0.0 4.8 0.00 0.00 0.00 23 1016.7
20260507033821 25 229 3.2 8.0 0.00 0.00 0.00 22 1016.9
20260507033318 25 199 6.4 8.0 0.00 0.00 0.00 23 1016.7
20260507032815 25 238 1.6 4.8 0.00 0.00 0.00 23 1016.8
20260507032311 25 234 3.2 6.4 0.00 0.00 0.00 22 1016.8
20260507031808 25 232 3.2 9.7 0.00 0.00 0.00 22 1016.5
20260507031305 25 216 4.8 11.3 0.00 0.00 0.00 22 1016.5
20260507030801 25 232 4.8 11.3 0.00 0.00 0.00 22 1016.4
20260507030259 26 220 6.4 8.0 0.00 0.00 0.00 22 1016.3
20260507025756 26 219 4.8 12.9 0.00 0.00 0.00 22 1016.2
20260507025253 26 221 4.8 11.3 0.00 0.00 0.00 22 1016.2
20260507024751 26 219 6.4 8.0 0.00 0.00 0.00 21 1016.2
20260507024248 26 240 4.8 12.9 0.00 0.00 0.00 21 1016.3
20260507023743 26 309 4.8 12.9 0.00 0.00 0.00 21 1016.1
20260507023240 26 231 8.0 14.5 0.00 0.00 0.00 21 1016.0
20260507022738 26 264 4.8 9.7 0.00 0.00 0.00 21 1016.1
20260507022233 26 231 8.0 12.9 0.00 0.00 0.00 21 1016.0
20260507021730 26 229 9.7 22.5 0.00 0.00 0.00 21 1015.8
20260507021225 26 224 8.0 16.1 0.00 0.00 0.00 21 1015.9
20260507020724 27 222 14.5 20.9 0.00 0.00 0.00 21 1016.1
20260507020220 27 219 11.3 17.7 0.00 0.00 0.00 21 1016.0
20260507015718 27 217 9.7 12.9 0.00 0.00 0.00 21 1015.8
20260507015215 27 237 6.4 17.7 0.00 0.00 0.00 20 1016.0
20260507014711 27 204 4.8 17.7 0.00 0.00 0.00 20 1015.9
20260507014208 27 226 14.5 24.1 0.00 0.00 0.00 20 1015.9
20260507013705 27 229 14.5 27.4 0.00 0.00 0.00 20 1015.9
20260507013202 27 256 4.8 22.5 0.00 0.00 0.00 20 1015.6
20260507012659 27 210 11.3 17.7 0.00 0.00 0.00 20 1015.8
20260507012155 27 216 6.4 30.6 0.00 0.00 0.00 20 1015.7
20260507011653 28 217 9.7 16.1 0.00 0.00 0.00 20 1015.7
20260507011149 28 152 0.0 11.3 0.00 0.00 0.00 20 1015.7
20260507010643 28 173 4.8 12.9 0.00 0.00 0.00 20 1015.7
20260507010140 28 192 0.0 19.3 0.00 0.00 0.00 20 1015.8
20260507005637 28 220 4.8 24.1 0.00 0.00 0.00 20 1015.8
20260507005133 28 222 12.9 17.7 0.00 0.00 0.00 20 1015.6
20260507004630 28 227 9.7 19.3 0.00 0.00 0.00 20 1015.7
20260507004128 28 203 6.4 22.5 0.00 0.00 0.00 20 1015.9
20260507003624 28 223 4.8 12.9 0.00 0.00 0.00 20 1015.7
20260507003119 28 233 8.0 22.5 0.00 0.00 0.00 20 1015.9
20260507002616 28 223 8.0 17.7 0.00 0.00 0.00 20 1015.8
20260507002111 28 238 8.0 19.3 0.00 0.00 0.00 20 1015.7
20260507001608 28 239 4.8 20.9 0.00 0.00 0.00 20 1015.8
20260507001106 28 216 9.7 19.3 0.00 0.00 0.00 20 1015.7
20260507000602 28 262 8.0 17.7 0.00 0.00 0.00 20 1015.8
20260507000057 28 233 11.3 19.3 0.00 0.00 0.00 20 1015.7
20260506235555 28 215 6.4 25.7 0.00 0.00 0.00 20 1015.7
20260506235050 28 250 4.8 17.7 0.00 0.00 0.00 20 1015.8
20260506234548 28 230 11.3 17.7 0.00 0.00 0.00 20 1015.9
20260506234045 28 120 3.2 20.9 0.00 0.00 0.00 20 1015.8
20260506233542 28 39 4.8 16.1 0.00 0.00 0.00 20 1016.1
20260506233039 28 228 4.8 12.9 0.00 0.00 0.00 20 1016.0
20260506232535 28 237 12.9 22.5 0.00 0.00 0.00 20 1016.1
20260506232030 29 214 4.8 14.5 0.00 0.00 0.00 20 1016.1
20260506231528 29 232 8.0 17.7 0.00 0.00 0.00 20 1016.2
20260506231026 28 239 9.7 17.7 0.00 0.00 0.00 20 1016.2
20260506230522 28 171 8.0 24.1 0.00 0.00 0.00 20 1016.1
20260506230020 28 150 8.0 17.7 0.00 0.00 0.00 20 1016.4
20260506225516 28 229 12.9 19.3 0.00 0.00 0.00 21 1016.3
20260506225007 28 207 4.8 19.3 0.00 0.00 0.00 20 1016.3
20260506224504 29 114 4.8 8.0 0.00 0.00 0.00 20 1016.3
20260506224001 28 154 4.8 16.1 0.00 0.00 0.00 20 1016.4
20260506223456 28 129 17.7 17.7 0.00 0.00 0.00 21 1016.4
20260506222953 28 215 9.7 17.7 0.00 0.00 0.00 21 1016.7
20260506222450 28 98 11.3 16.1 0.00 0.00 0.00 21 1016.7
20260506221947 28 229 4.8 17.7 0.00 0.00 0.00 21 1016.8
20260506221444 28 318 3.2 16.1 0.00 0.00 0.00 20 1016.7
20260506220942 28 258 11.3 20.9 0.00 0.00 0.00 21 1016.8
20260506220437 28 191 4.8 14.5 0.00 0.00 0.00 21 1016.8
20260506215934 28 143 9.7 17.7 0.00 0.00 0.00 21 1017.0
20260506215430 28 115 3.2 12.9 0.00 0.00 0.00 21 1016.8
20260506214926 27 202 0.0 14.5 0.00 0.00 0.00 21 1017.2
20260506214423 27 358 1.6 11.3 0.00 0.00 0.00 21 1017.2
20260506213921 27 230 9.7 24.1 0.00 0.00 0.00 21 1017.3
20260506213418 28 236 4.8 11.3 0.00 0.00 0.00 21 1017.3
20260506212915 27 214 6.4 16.1 0.00 0.00 0.00 21 1017.6
20260506212411 28 189 6.4 14.5 0.00 0.00 0.00 21 1017.7
20260506211906 28 291 4.8 14.5 0.00 0.00 0.00 21 1017.6
20260506211403 28 260 4.8 20.9 0.00 0.00 0.00 21 1017.7
20260506210900 27 222 11.3 19.3 0.00 0.00 0.00 22 1017.8
20260506210356 27 250 1.6 14.5 0.00 0.00 0.00 21 1017.7
20260506205854 27 227 6.4 16.1 0.00 0.00 0.00 22 1017.9
20260506205349 27 229 11.3 19.3 0.00 0.00 0.00 22 1017.9
20260506204846 27 168 3.2 22.5 0.00 0.00 0.00 22 1018.1
20260506204344 27 93 3.2 12.9 0.00 0.00 0.00 22 1018.3
20260506203841 28 356 3.2 11.3 0.00 0.00 0.00 21 1018.3
20260506203338 27 289 9.7 17.7 0.00 0.00 0.00 22 1018.4
20260506202835 27 291 3.2 9.7 0.00 0.00 0.00 23 1018.2
20260506202332 27 194 3.2 20.9 0.00 0.00 0.00 22 1018.4
20260506201829 27 284 3.2 16.1 0.00 0.00 0.00 22 1018.3
20260506201326 27 207 3.2 16.1 0.00 0.00 0.00 23 1018.5
20260506200823 27 219 11.3 16.1 0.00 0.00 0.00 23 1018.5
20260506200319 26 151 14.5 22.5 0.00 0.00 0.00 23 1018.5
20260506195815 26 130 6.4 17.7 0.00 0.00 0.00 23 1018.7
20260506195312 27 214 4.8 24.1 0.00 0.00 0.00 23 1018.6
20260506194809 26 141 4.8 16.1 0.00 0.00 0.00 23 1018.6
20260506194306 27 119 3.2 9.7 0.00 0.00 0.00 22 1018.7
20260506193804 26 173 1.6 16.1 0.00 0.00 0.00 23 1018.8
20260506193300 26 241 8.0 11.3 0.00 0.00 0.00 22 1018.9